Location: ?????
(44.4284°N, 135.2222°E)
Time: 02:42:11
(UTC+00:00)

Sich 1 - Pass Details

Date: 19 May 2025
Orbit: 574 x 603 km, 82.5° (Epoch: 13 June)

Event Time Altitude Azimuth Distance (km) Brightness Sun altitude
Rises 14:29:55 0° 349° (NNW) 2,831 7.8 -25.4°
Reaches altitude 10° 14:32:09 10° 347° (NNW) 1,920 6.6 -25.4°
Enters shadow 14:35:47 59° 313° (NW) 677 3.3 -25.5°
